Terminal Aerodrome Forecast
Issued by NWS

Home | Current Version | Previous Version | Text Only | Print | Product List | Glossary On
Versions: 1 2 3 4 5 6 7 8 9 10 11 12 13 14
000
FTUS42 KGSP 222320
TAFGMU
TAF
KGMU 222320Z 2300/2324 00000KT P6SM SKC
     FM231400 05006KT P6SM SKC
     FM231700 11006KT P6SM SKC=

USA.gov is the U.S. government's official web portal to all federal, state and local government web resources and services.